Tracking 19847 objects as of 16-Sep-2019
HD Live streaming from Space Station
objects crossing your sky now

FENGYUN 1C DEB

Track FENGYUN 1C DEB now!
10-day predictions


NORAD ID: 33666
Int'l Code: 1999-025DFB
Perigee: 637.5 km
Apogee: 744.4 km
Inclination: 98.9 °
Period: 98.4 minutes
Semi major axis: 7061 km
RCS: 0.0116 m2 (small)
Launch date: May 10, 1999
Source: People's Republic of China (PRC)
Launch site: Taiyaun Space Center, China (TSC)

Note: This is SATELLITE DEBRIS
aabbcc
Your satellite tracking list
Your tracking list is empty




NASA's NSSDC Master Catalog

Two Line Element Set (TLE):
1 33666U 99025DFB 19258.57397170  .00001359  00000-0  26599-3 0  9995
2 33666  98.8643 160.4041 0075693 154.2727 326.4372 14.62893525629658
Source of the keplerian elements: AFSPC